Regional Weather Roundup
Issued by NWS Newport/Morehead, NC

Current Version | Previous Version | Graphics & Text | Print | Product List | Glossary Off
Versions: 1 2 3 4 5 6 7 8 9 10 11 12 13 14 15 16 17 18 19 20 21 22 23 24 25 26 27 28 29 30 31 32 33 34 35 36 37 38 39 40 41 42 43 44 45 46 47 48 49 50

000
ASUS42 KMHX 291213
RWRMHX
WEATHER ROUNDUP FOR EASTERN NORTH CAROLINA
NATIONAL WEATHER SERVICE NEWPORT/MOREHEAD CITY NC
800 AM EDT WED MAR 29 2017

NOTE: "FAIR" INDICATES FEW OR NO CLOUDS BELOW 12,000 FEET
WITH NO SIGNIFICANT WEATHER AND/OR OBSTRUCTIONS TO VISIBILITY

NCZ015>017-031-032-045>047-102-103-291300-
NORTH COAST

CITY           SKY/WX    TMP DP  RH WIND       PRES   REMARKS
EDENTON        NOT AVBL
ELIZABETH CITY MOSUNNY   54  51  90 NE18      30.03R
KITTY HAWK     NOT AVBL
MANTEO         CLOUDY    50  50 100 NE17      30.03R FOG

$$

NCZ045>047-081-094-103-104-291300-
CENTRAL COAST

CITY           SKY/WX    TMP DP  RH WIND       PRES   REMARKS
FRISCO         CLOUDY    55  52  89 NE13G22   29.99R FOG

$$

NCZ095-097-098-100-101-291300-
SOUTHERN COAST

CITY           SKY/WX    TMP DP  RH WIND       PRES   REMARKS
BEAUFORT       SUNNY     62  61  96 NE7       29.99R
CEDAR ISLAND   NOT AVBL
JACKSONVILLE   SUNNY     61  58  90 N6        29.99R
PINEY ISLAND   SUNNY    N/A N/A N/A NE9       29.99R
WILMINGTON     MOSUNNY   60  57  89 CALM      29.99R


$$

NCZ011>013-027>030-043-044-078>080-089-090>093-098-291300-
COASTAL PLAIN

CITY           SKY/WX    TMP DP  RH WIND       PRES   REMARKS
AHOSKIE        NOT AVBL
CLINTON        SUNNY     59  55  86 N6        30.02R
ELIZABETHTOWN  SUNNY     59  53  80 CALM      30.01R
GOLDSBORO      SUNNY     58  58 100 N7        30.01R
GREENVILLE     SUNNY     55  55 100 N6        30.04R
HAVELOCK       SUNNY     61  58  90 N9        30.00R
KENANSVILLE    SUNNY     57  55  94 N6        30.01R
KINSTON        SUNNY     57  57 100 N7        30.03R
NEW BERN       SUNNY     58  58 100 N8        30.01R
RICHLANDS      MOSUNNY   58  56  93 N5        30.01R
ROCKY MOUNT    SUNNY     58  57  97 N9        30.04R
WASHINGTON     SUNNY     56  56  97 NE7       30.03R
WHITEVILLE     SUNNY     60  53  78 CALM      30.00R

$$

AMZ130-135-150-152-154-156-158-170-250-252-270-ANZ085-086-088-633-658-670-291300-
MARINE OBSERVATIONS

STATION/POSITION TIME  TEMP    WIND        PRES    WAVE   SWELL
                       AIR SEA DIR/SP/G            HT/PER HT/PER
                 (UTC) (F)     (DEG/KT/KT) (MB)    (FT/S) (FT/S)
CHESAPEAKE LIGHT NOT AVBL
64 E VA BEACH    1150   48 47   20/ 19/ 25 1015.6    5/10   3/10
DUCK             1148   49 48   20/ 20/ 24 1015.8
2 E DUCK         1130      50                N/A     4/ 9   2/11
OREGON INLET     1136   49 58   10/ 15/ 20 1015.9
13E OREGON INLT  1148      50                N/A     4/ 9   3/ 9
HATTERAS CG      1148   55 62   20/ 15/ 21 1015.2
DIAMOND BUOY     1150   60 74   20/ 17/ 21 1014.6    5/10   3/10
CAPE LOOKOUT     1100   63     360/  8/ 10 1014.2
BEAUFORT LAB     1148   62 62   20/  6/  9 1014.3
30 SE NEW RVR IN 1108   64     360/ 10/ 14 1014.5
30 SE NEW RVR IN 1143      64                N/A     5/10   2/11
27 SE WRIGHTSVLE 1108   66 70   10/ 12/ 19 1013.5
5 SE WRIGHTSVLE  1108   60 59  340/  6/ 10 1014.5
225 S CAPE HAT   1150   71 72  240/ 16/ 17 1014.0    6/10   5/10
41 SE CHARLESTON 1150   67 70  330/  8/ 10 1014.6    5/10   5/10

$$




USA.gov is the U.S. government's official web portal to all federal, state and local government web resources and services.